This demonstration page uses our WeatherBlox Daily Observations layout. Learn more.

Left ArrowRight Arrow

Hourly Observations for May 13, 2017

Temp ( °F °C ) Dew Point ( °F °C ) Humidity (%) Winds ( mph kmh ) Pressure ( in mb ) Visibility ( mi km ) Precip ( " mm )
12:13 am 00:13 Mostly Clear with Mist and Fog 63 17.2 63 17.2 100 100 N 3 6 29.77 1008 2 3 0.00 0.00
12:23 am 00:23 Mostly Clear with Mist and Fog 63 17.2 63 17.2 100 100 Calm 29.77 1008 3 5 0.00 0.00
12:53 am 00:53 Mostly Cloudy 65 18.3 65 18.3 100 100 Calm 29.75 1008 9 14 0.00 0.00
1:53 am 01:53 Cloudy 65 18.3 65 18.3 100 100 WSW 3 6 29.76 1008 10 16 0.00 0.00
2:53 am 02:53 Cloudy 65 18.3 64 17.8 97 97 WSW 3 6 29.75 1007 10 16 0.00 0.00
3:53 am 03:53 Cloudy 65 18.3 62 16.7 90 90 SW 3 6 29.74 1007 10 16 0.00 0.00
4:53 am 04:53 Cloudy 64 17.8 63 17.2 96 96 Calm 29.74 1007 10 16 0.00 0.00
5:53 am 05:53 Clear 63 17.2 63 17.2 100 100 Calm 29.74 1007 10 16 0.00 0.00
6:53 am 06:53 Sunny 62 16.7 62 16.7 100 100 SSW 3 6 29.75 1007 10 16 0.00 0.00
7:53 am 07:53 Sunny 63 17.2 62 16.7 97 97 SW 3 6 29.77 1008 10 16 0.00 0.00
8:53 am 08:53 Partly Cloudy 64 17.8 61 16.1 90 90 SSW 3 6 29.76 1008 10 16 0.00 0.00
9:24 am 09:24 Mostly Cloudy 65 18.3 61 16.1 87 87 Calm 29.77 1008 10 16 0.00 0.00
9:53 am 09:53 Sunny 66 18.9 62 16.7 87 87 ENE 5 7 29.76 1008 10 16 0.00 0.00
10:11 am 10:11 Mostly Cloudy 66 18.9 62 16.7 87 87 E 3 6 29.77 1008 10 16 0.00 0.00
10:53 am 10:53 Partly Cloudy 69 20.6 63 17.2 81 81 NNE 3 6 29.76 1008 10 16 0.00 0.00
11:38 am 11:38 Mostly Cloudy 71 21.7 63 17.2 76 76 N 8 13 29.77 1008 10 16 0.00 0.00
11:53 am 11:53 Mostly Cloudy 72 22.2 63 17.2 73 73 NNE 7 11 29.78 1008 10 16 0.00 0.00
12:53 pm 12:53 Mostly Cloudy 75 23.9 63 17.2 66 66 NNE 6 9 29.76 1008 10 16 0.00 0.00
1:53 pm 13:53 Partly Cloudy 77 25 62 16.7 60 60 VRB 6 9 29.75 1007 10 16 0.00 0.00
2:53 pm 14:53 Mostly Cloudy 76 24.4 62 16.7 62 62 W 3 6 29.74 1007 10 16 0.00 0.00
3:53 pm 15:53 Partly Cloudy with Nearby Thunderstorms 76 24.4 64 17.8 67 67 NW 10 17 29.73 1007 10 16 0.00 0.03
4:06 pm 16:06 Sunny 77 25 64 17.8 64 64 NNW 12 19 29.74 1007 10 16 0.00 0.00
4:53 pm 16:53 Partly Cloudy 78 25.6 64 17.8 62 62 N 8 13 29.73 1007 10 16 0.00 0.00
5:53 pm 17:53 Mostly Sunny 77 25 62 16.7 60 60 NNW 12 19 29.72 1007 10 16 0.00 0.00
6:53 pm 18:53 Mostly Sunny 76 24.4 60 15.6 58 58 NNW 15 24 29.75 1008 10 16 0.00 0.00
7:53 pm 19:53 Sunny 74 23.3 59 15 60 60 NNW 7 11 29.77 1008 10 16 0.00 0.00
8:53 pm 20:53 Clear 71 21.7 57 13.9 61 61 NNW 6 9 29.80 1009 10 16 0.00 0.00
9:53 pm 21:53 Clear 68 20 56 13.3 65 65 VRB 3 6 29.81 1010 10 16 0.00 0.00
10:53 pm 22:53 Clear 67 19.4 54 12.2 63 63 Calm 29.83 1010 10 16 0.00 0.00
11:53 pm 23:53 Clear 64 17.8 56 13.3 75 75 Calm 29.85 1011 10 16 0.00 0.00

Powered by AerisWeather